Back to catalog

STARLINK-31329

AliveCommunicationsVLEO
NORAD 59169·PAYLOAD·🇺🇸 United States

Launched Mar 4, 2024 from Cape Canaveral Space Force Station

Loading…

Next Passes (next 24 hours)

TLE

FreshSource: CelesTrak SupGP

Epoch: Sep 14, 2026, 14:26 UTC

1 59169C 24044T   26257.60187500  .00046929  00000+0  16986-2 0  2571
2 59169  43.0004 120.3711 0001438 258.6370 138.5063 15.27578459    15

Track STARLINK-31329 in real time with AllMySat

Download on the App Store